Location: Cuzcurrita-R�o Tir�n
(42.5415°N, 2.9642°W)
Time: 15:20:35
(UTC+00:00)

Daily predictions for brighter satellites

Satellite Brightness Start Highest point End
(mag) Time Altitude Azimuth Time Altitude Azimuth Time Altitude Azimuth
Cosmos 1656 Rocket 3.7 18:16:53 10° S 18:22:19 65° ESE 18:27:53 10° NNE
STARLINK-1046 3.6 18:24:29 10° SW 18:28:36 71° SE 18:32:44 10° ENE
Cosmos 2285 Rocket 4.0 18:23:31 10° NNW 18:29:56 77° ENE 18:36:21 10° SSE
H-2A R/B 3.5 18:26:50 10° ESE 18:30:27 19° ENE 18:34:06 10° NNE
STARLINK-29 4.1 18:29:00 10° WNW 18:32:15 47° SW 18:35:30 10° SSE
STARLINK-1039 3.6 18:29:29 10° SW 18:33:36 77° SE 18:37:45 10° NE
STARLINK-1045 3.6 18:34:26 10° SW 18:38:34 84° SE 18:42:43 10° NE
Cosmos 1470 Rocket 3.7 18:35:30 10° S 18:39:51 84° W 18:44:17 10° N
COSMOS 2487 2.6 18:36:51 10° N 18:40:13 48° ENE 18:43:34 10° SE
Cosmos 2233 Rocket 4.3 18:36:01 10° SSW 18:42:10 73° W 18:48:23 10° N
STARLINK-43 4.3 18:40:11 10° NW 18:43:35 33° NNE 18:46:22 14° E
STARLINK-1050 3.6 18:39:27 10° SW 18:43:35 87° NNW 18:47:44 10° NE
Lacrosse 5 rocket 3.6 18:42:18 10° NNW 18:44:59 15° NNE 18:47:44 10° NE
HJ-1C 4.3 18:42:17 10° SE 18:45:08 27° ENE 18:47:59 10° NNE
Cosmos 468 Rocket 4.2 18:40:24 10° S 18:45:28 49° ESE 18:50:35 10° NNE
STARLINK-52 4.5 18:44:18 10° WNW 18:47:27 38° SW 18:50:34 10° SSE
Okean 1 4.0 18:44:05 10° NNE 18:47:42 32° ENE 18:51:17 10° SE
Cosmos 1862 Rocket 4.2 18:44:13 10° NNW 18:48:31 59° W 18:52:48 10° S
STARLINK-1055 3.7 18:44:25 10° SW 18:48:33 81° NW 18:52:42 10° NE
Okean 1-7 3.4 18:44:43 10° N 18:48:48 39° ENE 18:52:54 10° SSE
Cosmos 192 4.4 18:45:12 10° S 18:49:57 53° ESE 18:54:44 10° NNE
Lacrosse 5 2.1 18:45:42 10° SSW 18:50:37 52° SE 18:55:34 10° NE
COSMO-SKYMED 1 3.7 18:47:39 10° N 18:51:51 48° WNW 18:56:00 10° SW
STARLINK-1022 3.8 18:49:24 10° WSW 18:53:32 74° NW 18:57:32 11° NE
Cosmos 405 3.3 18:50:09 10° N 18:53:35 44° ENE 18:56:58 10° SSE
Meteor 1-14 Rocket 4.4 18:51:01 10° SSE 18:56:15 47° E 19:01:34 10° NNE
Gbstr 26 Del rocket 3.2 18:53:51 10° WSW 18:57:47 67° NNW 19:02:06 12° NE
STARLINK-1042 3.9 18:54:25 10° WSW 18:58:32 69° NNW 19:02:20 12° NE
Cosmos 2369 Rocket 4.0 18:54:32 10° WSW 18:59:36 33° NW 19:04:43 10° N
Cosmos 1602 3.8 18:59:14 10° S 19:02:59 51° E 19:06:45 10° NNE
STARLINK-1056 4.0 18:59:25 10° WSW 19:03:31 64° NNW 19:07:07 13° NE
Cosmos 2242 Rocket 3.9 18:59:35 10° NNW 19:04:09 73° W 19:08:42 10° S
USA 186 3.9 19:05:54 11° NNE 19:05:54 11° NNE 19:06:01 10° NNE
Cosmos 44 Rocket 3.4 19:00:13 10° NNW 19:04:53 53° NE 19:08:48 14° SE
Cosmos 841 Rocket 4.1 19:00:58 10° SSE 19:05:30 32° E 19:10:04 10° NE
Cosmos 1763 Rocket 3.5 19:00:40 10° S 19:05:47 61° ESE 19:11:00 10° NNE
Cosmos 1898 Rocket 3.5 19:00:46 10° NNW 19:05:56 63° ENE 19:11:04 10° SSE
Cosmos 1703 Rocket 3.5 19:01:42 10° N 19:06:11 74° E 19:10:39 10° SSE
SJ 16-02 1.3 19:02:46 10° N 19:07:08 58° ENE 19:11:26 10° SSE
STARLINK-1054 4.1 19:04:24 10° WSW 19:08:29 59° NNW 19:11:52 15° NE
ARGOS 3.9 19:04:37 11° SE 19:09:14 33° ENE 19:14:00 10° N
Cosmos 1939 Rocket 3.5 19:05:10 10° S 19:09:15 62° W 19:13:22 10° NNW
Cosmos 1072 Rocket 4.5 19:03:07 10° S 19:09:28 79° E 19:15:46 10° N
Meteor 1-19 Rocket 4.3 19:04:45 10° N 19:10:24 54° ENE 19:15:51 10° SSE
Meteor 1-25 Rocket 4.3 19:05:35 10° S 19:11:17 84° W 19:16:55 10° N
Cosmos 2208 Rocket 4.4 19:07:28 10° S 19:12:32 43° ESE 19:17:34 10° NNE
Cosmos 1869 Rocket 3.5 19:08:20 10° S 19:12:38 57° E 19:16:55 10° NNE
GPS 2-04 Rocket1 4.1 19:09:07 10° WSW 19:12:51 31° S 19:15:11 18° SE
STARLINK-1062 4.2 19:09:25 10° WSW 19:13:28 55° NNW 19:16:39 16° NE
Cosmos 1513 Rocket 4.4 19:10:16 10° S 19:16:21 82° E 19:22:33 10° N
CZ-2D R/B 4.2 19:12:36 10° S 19:16:23 50° W 19:20:11 10° NNW
CSL-04 Rocket 4.3 19:12:03 10° S 19:17:30 61° WSW 19:22:55 10° NNW
STARLINK-1053 4.3 19:14:27 10° WSW 19:18:29 51° NNW 19:21:26 17° NE
CENTAUR R/B 4.2 19:12:20 10° NNW 19:18:36 26° NNE 19:22:39 18° ENE
CZ-4 R/B 3.6 19:17:05 10° SSW 19:20:46 30° W 19:24:26 10° NW
STARLINK-80 4.4 19:18:45 10° NW 19:22:15 32° NNE 19:23:11 28° NE
STARLINK-1061 4.4 19:19:27 10° WSW 19:23:27 47° NNW 19:26:12 19° NE
CZ-2C R/B 3.6 19:18:44 10° SE 19:24:11 44° ENE 19:29:31 10° N
YAOGAN 1 4.3 19:22:04 10° SSW 19:26:02 35° W 19:30:01 10° NNW
Cosmos 858 Rocket 4.4 19:21:19 10° NNW 19:26:33 71° ENE 19:31:32 11° SSE
Cosmos 1570 Rocket 3.9 19:21:37 10° S 19:26:48 68° ESE 19:32:03 10° NNE
FREGAT/IRIS 4.4 19:29:02 18° N 19:29:02 18° N 19:29:58 10° N
SJ-6B 3.4 19:29:19 34° ENE 19:29:19 34° ENE 19:32:24 10° N
Ariane Rocket 2.9 19:26:39 10° SSE 19:31:45 83° ENE 19:36:53 10° NNW
Cosmos 540 Rocket 3.6 19:27:03 10° S 19:31:57 49° ESE 19:36:55 10° NNE
ATLAS 3B R/B 4.3 19:28:55 10° NNW 19:33:17 18° NNE 19:35:31 15° NE
Okean 3 3.8 19:29:26 10° N 19:33:25 40° ENE 19:33:29 40° E
BREEZE-M DEB (TANK) 3.8 19:31:43 10° WNW 19:34:54 74° SSW 19:40:13 21° SE
NOSS 8 (F) 4.1 19:35:27 10° SW 19:38:49 89° SE 19:39:03 75° NE
Cosmos 990 Rocket 4.3 19:34:57 10° NNW 19:40:03 65° WSW 19:45:08 10° S
SJ-11-01 4.3 19:36:13 10° S 19:40:52 82° WSW 19:45:34 10° NNW
SL-08 RB Rocket 4.1 19:42:32 41° ENE 19:42:32 41° ENE 19:46:31 10° N
APEX 3.9 19:37:52 10° SSW 19:42:40 73° ESE 19:48:47 10° NNE
Cosmos 2297 Rocket 2.8 19:41:22 10° N 19:46:34 35° ENE 19:46:50 34° ENE
CZ-2C R/B 3.8 19:44:27 10° NNE 19:49:02 52° E 19:53:38 10° S
IRS-1A Rocket 4.3 19:44:33 10° S 19:50:02 76° WSW 19:55:34 10° NNW
Nadezhda 4 Rocket 4.0 19:45:25 10° N 19:51:45 85° W 19:58:05 10° S
Cosmos 1515 3.6 19:48:07 10° N 19:51:55 86° W 19:52:28 64° S
Genesis I 3.7 19:48:55 10° NNW 19:52:02 46° NNE 19:52:02 46° NNE
Cosmos 1937 Rocket 3.8 19:49:45 10° NNW 19:54:57 67° WSW 19:59:19 14° S
ATLAS 2AS CENTAUR R/B 3.8 19:48:39 10° S 19:53:45 30° SE 19:53:45 30° SE
Meteor 1-5 Rocket 4.0 19:51:57 10° S 19:57:21 68° E 20:02:59 10° NNE
Cosmos 2026 Rocket 4.1 19:51:42 10° N 19:57:40 49° ENE 19:58:21 47° E
SL-24 DEB 4.3 19:56:41 10° S 20:01:22 78° W 20:06:03 10° N
USA 102 4.4 20:04:59 73° SW 20:04:59 73° SW 20:06:37 38° SSW
Cosmos 2221 Rocket 3.6 20:00:24 10° N 20:04:54 78° W 20:06:07 48° S
Cosmos 2227 Rocket 2.7 20:00:23 10° NNW 20:05:17 42° NE 20:05:17 42° NE
USA 238 DEB 3.9 20:00:37 10° NNW 20:07:44 58° NE 20:09:21 49° E
USA 238 3.9 20:00:44 10° NNW 20:07:49 58° NE 20:09:24 49° E
H-2A R/B 2.4 20:03:56 10° S 20:09:17 67° WSW 20:14:44 10° NNW
Cosmos 372 Rocket 3.9 20:14:05 10° NNW 20:19:10 82° NNE 20:19:10 82° NNE
Lacrosse 5 rocket 3.0 20:20:58 10° NW 20:23:51 30° N 20:23:51 30° N
MetOp-A 4.1 20:28:09 75° N 20:28:09 75° N 20:33:05 10° NNW
Cosmos 1428 Rocket 4.3 20:27:13 10° N 20:33:08 82° NE 20:33:08 82° NE
Lacrosse 5 3.2 20:29:08 10° W 20:33:47 35° NNW 20:34:52 31° N
Cosmos 2219 3.2 20:28:25 10° NNW 20:34:11 78° WSW 20:34:13 78° WSW
Cosmos 1634 Rocket 4.2 20:35:40 10° SSW 20:41:57 71° W 20:48:19 10° N
USA 234 4.3 20:42:41 30° NNE 20:43:11 31° NNE 20:48:43 10° NW
H-2A R/B 4.1 20:29:30 10° WSW 20:43:31 26° SSW 20:44:20 26° S
SJ 16-02 4.3 20:43:13 10° WNW 20:45:09 13° W 20:47:04 10° WSW
Resurs 01 Rocket 3.9 20:48:56 18° NNW 20:48:56 18° NNW 20:50:05 10° NNW
Meteor 1-11 Rocket 4.5 20:51:22 10° SSW 20:56:45 49° WNW 21:02:06 10° N
NOSS 3-2 (A) 4.0 20:50:17 10° NW 20:57:57 83° WSW 20:58:23 80° S
NOSS 3-2 (C) 4.0 20:54:16 10° NNW 21:01:19 73° NNE 21:01:19 73° NNE
CENTAUR R/B 3.2 21:02:37 10° NNW 21:09:51 68° NNE 21:09:51 68° NNE
ATLAS 3B R/B 3.8 21:18:51 10° NNW 21:22:47 35° N 21:22:47 35° N
Cosmos 2297 Rocket 3.9 21:25:27 10° NW 21:28:41 29° WNW 21:28:41 29° WNW
ATLAS 2AS CENTAUR R/B 4.4 21:38:03 10° SW 21:41:22 28° SW 21:41:22 28° SW
Cosmos 2227 Rocket 4.4 21:44:51 10° NW 21:47:08 21° WNW 21:47:08 21° WNW
